| time (UTC) | temp F | wind direction | speed knots | gust knots | rain 1hr in | rain 24hr in | rain mn in | humidity % | barometer mb |
| 20260510095050 | 53 | 27 | 0.9 | 1.7 | 0.00 | 0.00 | 0.00 | 87 | 1011.7 |
| 20260510094552 | 53 | 42 | 0.0 | 1.7 | 0.00 | 0.00 | 0.00 | 87 | 1011.4 |
| 20260510094049 | 53 | 105 | 0.0 | 3.5 | 0.00 | 0.00 | 0.00 | 88 | 1011.4 |
| 20260510093549 | 52 | 288 | 0.0 | 3.5 | 0.00 | 0.00 | 0.00 | 89 | 1011.3 |
| 20260510093054 | 52 | 241 | 0.0 | 0.0 | 0.00 | 0.00 | 0.00 | 89 | 1011.3 |
| 20260510092550 | 52 | 241 | 0.0 | 0.0 | 0.00 | 0.00 | 0.00 | 89 | 1011.3 |
| 20260510092050 | 52 | 241 | 0.0 | 0.0 | 0.00 | 0.00 | 0.00 | 89 | 1011.2 |
| 20260510091548 | 52 | 241 | 0.0 | 0.0 | 0.00 | 0.00 | 0.00 | 89 | 1011.1 |
| 20260510091048 | 52 | 241 | 0.0 | 0.0 | 0.00 | 0.00 | 0.00 | 89 | 1011.0 |
| 20260510090548 | 52 | 241 | 0.0 | 0.0 | 0.00 | 0.00 | 0.00 | 89 | 1011.0 |
| 20260510090049 | 52 | 241 | 0.0 | 0.0 | 0.00 | 0.00 | 0.00 | 89 | 1010.9 |
| 20260510085549 | 52 | 212 | 0.0 | 0.0 | 0.00 | 0.00 | 0.00 | 89 | 1010.9 |
| 20260510085051 | 52 | 212 | 0.0 | 0.0 | 0.00 | 0.00 | 0.00 | 89 | 1010.9 |
| 20260510084547 | 52 | 212 | 0.0 | 0.0 | 0.00 | 0.00 | 0.00 | 89 | 1010.9 |
| 20260510084047 | 52 | 212 | 0.0 | 0.0 | 0.00 | 0.00 | 0.00 | 89 | 1010.8 |
| 20260510083551 | 52 | 212 | 0.0 | 0.0 | 0.00 | 0.00 | 0.00 | 89 | 1010.8 |
| 20260510083058 | 52 | 212 | 0.0 | 0.0 | 0.00 | 0.00 | 0.00 | 88 | 1010.8 |
| 20260510082547 | 52 | 212 | 0.0 | 0.0 | 0.00 | 0.00 | 0.00 | 88 | 1010.8 |
| 20260510082047 | 53 | 212 | 0.0 | 0.0 | 0.00 | 0.00 | 0.00 | 88 | 1010.8 |
| 20260510081547 | 53 | 212 | 0.0 | 0.0 | 0.00 | 0.00 | 0.00 | 88 | 1010.8 |
| 20260510081046 | 53 | 212 | 0.0 | 0.9 | 0.00 | 0.00 | 0.00 | 88 | 1010.8 |
| 20260510080546 | 53 | 223 | 0.0 | 0.9 | 0.00 | 0.00 | 0.00 | 88 | 1010.8 |
| 20260510080046 | 53 | 161 | 0.0 | 1.7 | 0.00 | 0.00 | 0.00 | 88 | 1010.8 |
| 20260510075549 | 53 | 147 | 0.0 | 1.7 | 0.00 | 0.00 | 0.00 | 89 | 1010.7 |
| 20260510075047 | 53 | 187 | 0.0 | 0.0 | 0.00 | 0.00 | 0.00 | 88 | 1010.7 |
| 20260510074546 | 53 | 187 | 0.0 | 3.5 | 0.00 | 0.00 | 0.00 | 89 | 1010.7 |
| 20260510074047 | 52 | 252 | 0.0 | 3.5 | 0.00 | 0.00 | 0.00 | 90 | 1010.6 |
| 20260510073545 | 52 | 211 | 0.0 | 1.7 | 0.00 | 0.00 | 0.00 | 90 | 1010.7 |
| 20260510073044 | 52 | 211 | 0.0 | 1.7 | 0.00 | 0.00 | 0.00 | 90 | 1010.8 |
| 20260510072544 | 52 | 211 | 0.0 | 0.9 | 0.00 | 0.00 | 0.00 | 90 | 1010.8 |
| 20260510072043 | 51 | 211 | 0.0 | 0.0 | 0.00 | 0.00 | 0.00 | 90 | 1010.8 |
| 20260510071544 | 51 | 211 | 0.0 | 0.0 | 0.00 | 0.00 | 0.00 | 90 | 1010.8 |
| 20260510071043 | 51 | 211 | 0.0 | 0.9 | 0.00 | 0.00 | 0.00 | 90 | 1010.8 |
| 20260510070543 | 51 | 211 | 0.0 | 0.9 | 0.00 | 0.00 | 0.00 | 90 | 1010.9 |
| 20260510070045 | 51 | 202 | 0.0 | 0.9 | 0.00 | 0.00 | 0.00 | 90 | 1010.8 |
| 20260510065546 | 51 | 238 | 0.0 | 0.0 | 0.00 | 0.00 | 0.00 | 89 | 1010.8 |
| 20260510065042 | 51 | 238 | 0.0 | 0.0 | 0.00 | 0.00 | 0.00 | 89 | 1010.7 |
| 20260510064542 | 51 | 238 | 0.0 | 0.0 | 0.00 | 0.00 | 0.00 | 89 | 1010.8 |
| 20260510064042 | 51 | 238 | 0.0 | 0.9 | 0.00 | 0.00 | 0.00 | 89 | 1010.8 |
| 20260510063543 | 51 | 238 | 0.0 | 0.9 | 0.00 | 0.00 | 0.00 | 89 | 1010.8 |
| 20260510063042 | 51 | 227 | 0.0 | 0.0 | 0.00 | 0.00 | 0.00 | 89 | 1010.8 |
| 20260510062541 | 51 | 227 | 0.0 | 0.0 | 0.00 | 0.00 | 0.00 | 89 | 1010.8 |
| 20260510062045 | 51 | 229 | 0.0 | 0.0 | 0.00 | 0.00 | 0.00 | 89 | 1010.9 |
| 20260510061541 | 51 | 229 | 0.0 | 0.0 | 0.00 | 0.00 | 0.00 | 89 | 1010.8 |
| 20260510061041 | 51 | 229 | 0.0 | 0.0 | 0.00 | 0.00 | 0.00 | 89 | 1010.9 |
| 20260510060541 | 52 | 229 | 0.0 | 0.0 | 0.00 | 0.00 | 0.00 | 89 | 1010.8 |
| 20260510060040 | 52 | 229 | 0.0 | 0.0 | 0.00 | 0.00 | 0.00 | 88 | 1010.9 |
| 20260510055540 | 52 | 229 | 0.0 | 0.0 | 0.00 | 0.00 | 0.00 | 88 | 1011.0 |
| 20260510055039 | 52 | 229 | 0.0 | 0.0 | 0.00 | 0.00 | 0.00 | 88 | 1011.0 |
| 20260510054540 | 52 | 229 | 0.0 | 0.0 | 0.00 | 0.00 | 0.00 | 88 | 1011.1 |
| 20260510054039 | 52 | 229 | 0.0 | 0.0 | 0.00 | 0.00 | 0.00 | 88 | 1011.1 |
| 20260510053540 | 52 | 229 | 0.0 | 0.0 | 0.00 | 0.00 | 0.00 | 88 | 1011.1 |
| 20260510053038 | 52 | 229 | 0.0 | 0.0 | 0.00 | 0.00 | 0.00 | 88 | 1011.3 |
| 20260510052538 | 52 | 229 | 0.0 | 0.0 | 0.00 | 0.00 | 0.00 | 88 | 1011.3 |
| 20260510052038 | 52 | 229 | 0.0 | 0.0 | 0.00 | 0.00 | 0.00 | 88 | 1011.3 |
| 20260510051537 | 52 | 229 | 0.0 | 0.0 | 0.00 | 0.00 | 0.00 | 88 | 1011.4 |
| 20260510051040 | 52 | 229 | 0.0 | 0.0 | 0.00 | 0.00 | 0.00 | 88 | 1011.4 |
| 20260510050538 | 52 | 229 | 0.0 | 0.0 | 0.00 | 0.00 | 0.00 | 87 | 1011.3 |
| 20260510050036 | 52 | 229 | 0.0 | 0.0 | 0.00 | 0.00 | 0.00 | 87 | 1011.2 |
| 20260510045535 | 52 | 229 | 0.0 | 0.0 | 0.00 | 0.00 | 0.00 | 87 | 1011.2 |
| 20260510045034 | 52 | 229 | 0.0 | 0.0 | 0.00 | 0.00 | 0.00 | 86 | 1011.2 |
| 20260510044533 | 52 | 229 | 0.0 | 0.0 | 0.00 | 0.00 | 0.00 | 86 | 1011.2 |
| 20260510044034 | 52 | 229 | 0.0 | 0.0 | 0.00 | 0.00 | 0.00 | 86 | 1011.2 |
| 20260510043532 | 53 | 229 | 0.0 | 0.0 | 0.00 | 0.00 | 0.00 | 86 | 1011.3 |
| 20260510043031 | 53 | 229 | 0.0 | 0.0 | 0.00 | 0.00 | 0.00 | 85 | 1011.2 |
| 20260510042531 | 53 | 229 | 0.0 | 0.0 | 0.00 | 0.00 | 0.00 | 85 | 1011.1 |
| 20260510042029 | 53 | 229 | 0.0 | 0.0 | 0.00 | 0.00 | 0.00 | 84 | 1011.1 |
| 20260510041528 | 53 | 229 | 0.0 | 0.0 | 0.00 | 0.00 | 0.00 | 84 | 1011.0 |
| 20260510041027 | 53 | 229 | 0.0 | 0.9 | 0.00 | 0.00 | 0.00 | 84 | 1011.0 |
| 20260510040527 | 53 | 229 | 0.0 | 0.9 | 0.00 | 0.00 | 0.00 | 84 | 1010.9 |
| 20260510040026 | 53 | 229 | 0.0 | 0.9 | 0.00 | 0.00 | 0.00 | 85 | 1010.8 |
| 20260510035526 | 53 | 229 | 0.0 | 1.7 | 0.00 | 0.00 | 0.00 | 85 | 1010.7 |
| 20260510035026 | 53 | 205 | 0.0 | 0.0 | 0.00 | 0.00 | 0.00 | 85 | 1010.7 |
| 20260510034528 | 53 | 205 | 0.0 | 0.0 | 0.00 | 0.00 | 0.00 | 84 | 1010.7 |
| 20260510034027 | 53 | 205 | 0.0 | 0.0 | 0.00 | 0.00 | 0.00 | 85 | 1010.7 |
| 20260510033526 | 53 | 205 | 0.0 | 0.0 | 0.00 | 0.00 | 0.00 | 84 | 1010.7 |
| 20260510033025 | 53 | 205 | 0.0 | 0.0 | 0.00 | 0.00 | 0.00 | 84 | 1010.7 |
| 20260510032528 | 53 | 205 | 0.0 | 0.0 | 0.00 | 0.00 | 0.00 | 83 | 1010.7 |
| 20260510032026 | 53 | 205 | 0.0 | 0.0 | 0.00 | 0.00 | 0.00 | 83 | 1010.6 |
| 20260510031524 | 53 | 205 | 0.0 | 0.0 | 0.00 | 0.00 | 0.00 | 84 | 1010.6 |
| 20260510031024 | 53 | 205 | 0.0 | 0.0 | 0.00 | 0.00 | 0.00 | 83 | 1010.6 |
| 20260510030523 | 53 | 205 | 0.0 | 0.0 | 0.00 | 0.00 | 0.00 | 83 | 1010.4 |
| 20260510030025 | 53 | 205 | 0.0 | 0.0 | 0.00 | 0.00 | 0.00 | 83 | 1010.4 |
| 20260510025525 | 53 | 205 | 0.0 | 0.0 | 0.00 | 0.00 | 0.00 | 83 | 1010.3 |
| 20260510025023 | 53 | 205 | 0.0 | 0.0 | 0.00 | 0.00 | 0.00 | 83 | 1010.3 |
| 20260510024524 | 53 | 205 | 0.0 | 0.0 | 0.00 | 0.00 | 0.00 | 83 | 1010.2 |
| 20260510024022 | 54 | 205 | 0.0 | 0.0 | 0.00 | 0.00 | 0.00 | 82 | 1010.3 |
| 20260510023524 | 54 | 205 | 0.0 | 1.7 | 0.00 | 0.00 | 0.00 | 83 | 1010.3 |
| 20260510023022 | 54 | 205 | 0.0 | 1.7 | 0.00 | 0.00 | 0.00 | 82 | 1010.3 |
| 20260510022523 | 54 | 276 | 0.0 | 0.0 | 0.00 | 0.00 | 0.00 | 82 | 1010.2 |
| 20260510022022 | 54 | 277 | 0.0 | 0.0 | 0.00 | 0.00 | 0.00 | 82 | 1010.2 |
| 20260510021528 | 54 | 277 | 0.0 | 0.0 | 0.00 | 0.00 | 0.00 | 82 | 1010.1 |
| 20260510021021 | 54 | 276 | 0.0 | 0.0 | 0.00 | 0.00 | 0.00 | 81 | 1010.1 |
| 20260510020521 | 55 | 276 | 0.0 | 0.0 | 0.00 | 0.00 | 0.00 | 81 | 1010.0 |
| 20260510020021 | 55 | 277 | 0.0 | 0.0 | 0.00 | 0.00 | 0.00 | 80 | 1010.0 |
| 20260510015523 | 55 | 277 | 0.0 | 0.0 | 0.00 | 0.00 | 0.00 | 79 | 1009.9 |
| 20260510015020 | 55 | 277 | 0.0 | 0.0 | 0.00 | 0.00 | 0.00 | 79 | 1009.9 |
| 20260510014520 | 55 | 277 | 0.0 | 0.0 | 0.00 | 0.00 | 0.00 | 78 | 1009.8 |
| 20260510014020 | 56 | 277 | 0.0 | 0.0 | 0.00 | 0.00 | 0.00 | 78 | 1009.8 |
| 20260510013521 | 56 | 277 | 0.0 | 0.0 | 0.00 | 0.00 | 0.00 | 78 | 1009.6 |
| 20260510013021 | 56 | 277 | 0.0 | 0.0 | 0.00 | 0.00 | 0.00 | 77 | 1009.6 |
| 20260510012520 | 56 | 277 | 0.0 | 0.0 | 0.00 | 0.00 | 0.00 | 76 | 1009.5 |
| 20260510012020 | 57 | 277 | 0.0 | 0.0 | 0.00 | 0.00 | 0.00 | 75 | 1009.4 |
| 20260510011522 | 57 | 276 | 0.0 | 0.0 | 0.00 | 0.00 | 0.00 | 75 | 1009.3 |
| 20260510011019 | 58 | 277 | 0.0 | 0.0 | 0.00 | 0.00 | 0.00 | 74 | 1009.1 |
| 20260510010519 | 58 | 277 | 0.0 | 0.0 | 0.00 | 0.00 | 0.00 | 73 | 1009.1 |
| 20260510010019 | 58 | 277 | 0.0 | 0.0 | 0.00 | 0.00 | 0.00 | 72 | 1009.1 |
| 20260510005519 | 59 | 277 | 0.0 | 0.0 | 0.00 | 0.00 | 0.00 | 72 | 1009.0 |
| 20260510005022 | 59 | 277 | 0.0 | 0.0 | 0.00 | 0.00 | 0.00 | 71 | 1008.8 |
| 20260510004518 | 60 | 277 | 0.0 | 0.9 | 0.00 | 0.00 | 0.00 | 70 | 1008.8 |
| 20260510004018 | 60 | 277 | 0.0 | 0.9 | 0.00 | 0.00 | 0.00 | 69 | 1008.7 |
| 20260510003518 | 61 | 277 | 0.0 | 0.9 | 0.00 | 0.00 | 0.00 | 69 | 1008.6 |
| 20260510003021 | 61 | 277 | 0.0 | 0.9 | 0.00 | 0.00 | 0.00 | 67 | 1008.5 |
| 20260510002519 | 61 | 277 | 0.0 | 0.9 | 0.00 | 0.00 | 0.00 | 67 | 1008.5 |
| 20260510002018 | 62 | 277 | 0.0 | 1.7 | 0.00 | 0.00 | 0.00 | 66 | 1008.4 |
| 20260510001517 | 62 | 277 | 0.0 | 1.7 | 0.00 | 0.00 | 0.00 | 66 | 1008.4 |
| 20260510001018 | 62 | 182 | 0.0 | 1.7 | 0.00 | 0.00 | 0.00 | 66 | 1008.3 |
| 20260510000518 | 63 | 257 | 0.0 | 1.7 | 0.00 | 0.00 | 0.00 | 65 | 1008.2 |
| 20260510000017 | 63 | 202 | 0.0 | 2.6 | 0.00 | 0.00 | 0.00 | 65 | 1008.2 |
| 20260509235517 | 63 | 190 | 0.0 | 2.6 | 0.00 | 0.00 | 0.00 | 63 | 1008.2 |
| 20260509235017 | 64 | 244 | 0.0 | 4.3 | 0.00 | 0.00 | 0.00 | 63 | 1008.2 |
| 20260509234529 | 64 | 232 | 0.0 | 4.3 | 0.00 | 0.00 | 0.00 | 62 | 1008.2 |
| 20260509234017 | 64 | 194 | 0.9 | 4.3 | 0.00 | 0.00 | 0.00 | 62 | 1008.1 |
| 20260509233517 | 64 | 255 | 1.7 | 5.2 | 0.00 | 0.00 | 0.00 | 61 | 1008.1 |
| 20260509233018 | 65 | 245 | 1.7 | 4.3 | 0.00 | 0.00 | 0.00 | 61 | 1008.1 |
| 20260509232516 | 65 | 229 | 1.7 | 9.6 | 0.00 | 0.00 | 0.00 | 60 | 1008.1 |
| 20260509232019 | 65 | 245 | 4.3 | 9.6 | 0.00 | 0.00 | 0.00 | 60 | 1008.0 |
| 20260509231519 | 65 | 239 | 0.9 | 4.3 | 0.00 | 0.00 | 0.00 | 60 | 1008.1 |
| 20260509231015 | 66 | 180 | 1.7 | 6.1 | 0.00 | 0.00 | 0.00 | 59 | 1008.0 |
| 20260509230515 | 66 | 237 | 4.3 | 7.8 | 0.00 | 0.00 | 0.00 | 58 | 1008.0 |
| 20260509230015 | 66 | 21 | 3.5 | 7.8 | 0.00 | 0.00 | 0.00 | 58 | 1008.1 |
| 20260509225515 | 67 | 291 | 3.5 | 7.8 | 0.00 | 0.00 | 0.00 | 57 | 1008.1 |
| 20260509225015 | 67 | 236 | 0.9 | 9.6 | 0.00 | 0.00 | 0.00 | 57 | 1008.2 |
| 20260509224528 | 67 | 296 | 5.2 | 9.6 | 0.00 | 0.00 | 0.00 | 56 | 1008.3 |
| 20260509224016 | 67 | 321 | 1.7 | 7.0 | 0.00 | 0.00 | 0.00 | 57 | 1008.3 |
| 20260509223517 | 67 | 229 | 1.7 | 6.1 | 0.00 | 0.00 | 0.00 | 57 | 1008.3 |
| 20260509223015 | 67 | 248 | 2.6 | 7.0 | 0.00 | 0.00 | 0.00 | 56 | 1008.3 |
| 20260509222514 | 67 | 203 | 2.6 | 7.8 | 0.00 | 0.00 | 0.00 | 57 | 1008.4 |
| 20260509222017 | 67 | 234 | 2.6 | 7.8 | 0.00 | 0.00 | 0.00 | 57 | 1008.5 |
| 20260509221514 | 67 | 267 | 2.6 | 7.8 | 0.00 | 0.00 | 0.00 | 57 | 1008.4 |
| 20260509221014 | 67 | 311 | 2.6 | 7.8 | 0.00 | 0.00 | 0.00 | 57 | 1008.5 |
| 20260509220515 | 67 | 245 | 3.5 | 9.6 | 0.00 | 0.00 | 0.00 | 57 | 1008.5 |
| 20260509220013 | 66 | 175 | 3.5 | 9.6 | 0.00 | 0.00 | 0.00 | 59 | 1008.5 |
| 20260509215514 | 66 | 285 | 3.5 | 8.7 | 0.00 | 0.00 | 0.00 | 57 | 1008.5 |
| 20260509215013 | 66 | 221 | 2.6 | 8.7 | 0.00 | 0.00 | 0.00 | 57 | 1008.5 |
| 20260509214513 | 66 | 182 | 4.3 | 8.7 | 0.00 | 0.00 | 0.00 | 57 | 1008.6 |
| 20260509214012 | 66 | 239 | 1.7 | 9.6 | 0.00 | 0.00 | 0.00 | 58 | 1008.6 |
| 20260509213512 | 66 | 259 | 4.3 | 9.6 | 0.00 | 0.00 | 0.00 | 60 | 1008.5 |
| 20260509213013 | 66 | 203 | 2.6 | 7.0 | 0.00 | 0.00 | 0.00 | 59 | 1008.6 |
| 20260509212512 | 66 | 229 | 1.7 | 6.1 | 0.00 | 0.00 | 0.00 | 60 | 1008.5 |
| 20260509212012 | 66 | 254 | 2.6 | 6.1 | 0.00 | 0.00 | 0.00 | 59 | 1008.5 |
| 20260509211512 | 66 | 257 | 0.9 | 8.7 | 0.00 | 0.00 | 0.00 | 59 | 1008.4 |
| 20260509211012 | 66 | 254 | 3.5 | 8.7 | 0.00 | 0.00 | 0.00 | 57 | 1008.4 |
| 20260509210512 | 66 | 181 | 2.6 | 7.0 | 0.00 | 0.00 | 0.00 | 57 | 1008.3 |
| 20260509210010 | 66 | 315 | 2.6 | 7.8 | 0.00 | 0.00 | 0.00 | 59 | 1008.3 |
| 20260509205511 | 66 | 250 | 2.6 | 7.8 | 0.00 | 0.00 | 0.00 | 58 | 1008.1 |
| 20260509205012 | 66 | 250 | 4.3 | 7.8 | 0.00 | 0.00 | 0.00 | 59 | 1008.0 |
| 20260509204511 | 66 | 121 | 1.7 | 4.3 | 0.00 | 0.00 | 0.00 | 59 | 1008.2 |
| 20260509204011 | 66 | 227 | 1.7 | 7.8 | 0.00 | 0.00 | 0.00 | 60 | 1008.2 |
| 20260509203510 | 66 | 227 | 1.7 | 7.8 | 0.00 | 0.00 | 0.00 | 58 | 1008.1 |
| 20260509203011 | 66 | 196 | 1.7 | 8.7 | 0.00 | 0.00 | 0.00 | 59 | 1008.1 |
| 20260509202510 | 67 | 258 | 3.5 | 10.4 | 0.00 | 0.00 | 0.00 | 56 | 1008.1 |
| 20260509202013 | 68 | 262 | 4.3 | 10.4 | 0.00 | 0.00 | 0.00 | 54 | 1008.1 |
| 20260509201507 | 68 | 214 | 3.5 | 8.7 | 0.00 | 0.00 | 0.00 | 58 | 1008.0 |
| 20260509201006 | 67 | 153 | 2.6 | 5.2 | 0.00 | 0.00 | 0.00 | 58 | 1007.9 |
| 20260509200506 | 66 | 222 | 1.7 | 7.0 | 0.00 | 0.00 | 0.00 | 59 | 1008.1 |
| 20260509200005 | 66 | 204 | 3.5 | 10.4 | 0.00 | 0.00 | 0.00 | 57 | 1008.2 |
| 20260509195509 | 66 | 198 | 4.3 | 7.8 | 0.00 | 0.00 | 0.00 | 58 | 1008.3 |
| 20260509195004 | 66 | 214 | 2.6 | 7.8 | 0.00 | 0.00 | 0.00 | 58 | 1008.3 |
| 20260509194504 | 66 | 219 | 1.7 | 7.8 | 0.00 | 0.00 | 0.00 | 60 | 1008.3 |
| 20260509194005 | 66 | 88 | 2.6 | 6.1 | 0.00 | 0.00 | 0.00 | 58 | 1008.2 |
| 20260509193505 | 66 | 262 | 2.6 | 7.0 | 0.00 | 0.00 | 0.00 | 58 | 1008.3 |
| 20260509193008 | 65 | 215 | 2.6 | 7.8 | 0.00 | 0.00 | 0.00 | 59 | 1008.3 |
| 20260509192504 | 66 | 292 | 2.6 | 7.8 | 0.00 | 0.00 | 0.00 | 58 | 1008.3 |
| 20260509192004 | 66 | 175 | 2.6 | 7.8 | 0.00 | 0.00 | 0.00 | 57 | 1008.3 |
| 20260509191503 | 66 | 226 | 2.6 | 7.8 | 0.00 | 0.00 | 0.00 | 59 | 1008.3 |
| 20260509191004 | 67 | 291 | 2.6 | 7.8 | 0.00 | 0.00 | 0.00 | 57 | 1008.3 |
| 20260509190503 | 67 | 165 | 0.9 | 6.1 | 0.00 | 0.00 | 0.00 | 57 | 1008.2 |
| 20260509190006 | 67 | 173 | 3.5 | 8.7 | 0.00 | 0.00 | 0.00 | 58 | 1008.3 |
| 20260509185502 | 67 | 234 | 1.7 | 6.1 | 0.00 | 0.00 | 0.00 | 58 | 1008.3 |
| 20260509185059 | 66 | 230 | 2.6 | 6.1 | 0.00 | 0.00 | 0.00 | 60 | 1008.3 |
| 20260509184602 | 66 | 202 | 1.7 | 9.6 | 0.00 | 0.00 | 0.00 | 62 | 1008.4 |
| 20260509184101 | 65 | 209 | 2.6 | 8.7 | 0.00 | 0.00 | 0.00 | 62 | 1008.3 |
| 20260509183559 | 64 | 213 | 2.6 | 7.0 | 0.00 | 0.00 | 0.00 | 62 | 1008.4 |
| 20260509183100 | 64 | 178 | 3.5 | 9.6 | 0.00 | 0.00 | 0.00 | 61 | 1008.4 |
| 20260509182557 | 64 | 202 | 3.5 | 9.6 | 0.00 | 0.00 | 0.00 | 61 | 1008.5 |
| 20260509182056 | 64 | 226 | 1.7 | 6.1 | 0.00 | 0.00 | 0.00 | 63 | 1008.5 |
| 20260509181609 | 64 | 203 | 2.6 | 8.7 | 0.00 | 0.00 | 0.00 | 60 | 1008.4 |
| 20260509181056 | 64 | 181 | 3.5 | 8.7 | 0.00 | 0.00 | 0.00 | 61 | 1008.5 |
| 20260509180556 | 64 | 232 | 1.7 | 7.8 | 0.00 | 0.00 | 0.00 | 62 | 1008.4 |
| 20260509180114 | 64 | 189 | 2.6 | 8.7 | 0.00 | 0.00 | 0.00 | 61 | 1008.5 |
| 20260509175555 | 64 | 300 | 4.3 | 8.7 | 0.00 | 0.00 | 0.00 | 61 | 1008.6 |
| 20260509175057 | 64 | 217 | 2.6 | 13.0 | 0.00 | 0.00 | 0.00 | 62 | 1008.5 |
| 20260509174556 | 64 | 300 | 5.2 | 13.0 | 0.00 | 0.00 | 0.00 | 58 | 1008.6 |
| 20260509174054 | 64 | 212 | 1.7 | 6.1 | 0.00 | 0.00 | 0.00 | 60 | 1008.6 |
| 20260509173555 | 64 | 198 | 2.6 | 13.0 | 0.00 | 0.00 | 0.00 | 60 | 1008.6 |
| 20260509173108 | 64 | 182 | 6.1 | 13.0 | 0.00 | 0.00 | 0.00 | 59 | 1008.7 |
| 20260509172553 | 65 | 194 | 3.5 | 11.3 | 0.00 | 0.00 | 0.00 | 59 | 1008.7 |
| 20260509172053 | 65 | 264 | 3.5 | 11.3 | 0.00 | 0.00 | 0.00 | 59 | 1008.7 |
| 20260509171554 | 65 | 211 | 3.5 | 11.3 | 0.00 | 0.00 | 0.00 | 60 | 1008.7 |
| 20260509171054 | 65 | 292 | 4.3 | 13.0 | 0.00 | 0.00 | 0.00 | 57 | 1008.8 |
| 20260509170551 | 65 | 238 | 4.3 | 8.7 | 0.00 | 0.00 | 0.00 | 59 | 1008.7 |
| 20260509170054 | 64 | 262 | 3.5 | 9.6 | 0.00 | 0.00 | 0.00 | 59 | 1008.8 |
| 20260509165550 | 64 | 177 | 3.5 | 9.6 | 0.00 | 0.00 | 0.00 | 57 | 1008.8 |
| 20260509165050 | 64 | 271 | 5.2 | 9.6 | 0.00 | 0.00 | 0.00 | 58 | 1008.7 |
| 20260509164550 | 64 | 184 | 4.3 | 8.7 | 0.00 | 0.00 | 0.00 | 57 | 1008.8 |
| 20260509164052 | 63 | 257 | 4.3 | 11.3 | 0.00 | 0.00 | 0.00 | 58 | 1008.9 |
| 20260509163549 | 63 | 140 | 5.2 | 11.3 | 0.00 | 0.00 | 0.00 | 59 | 1009.0 |
| 20260509163046 | 62 | 257 | 4.3 | 8.7 | 0.00 | 0.00 | 0.00 | 62 | 1008.9 |
| 20260509162546 | 62 | 214 | 3.5 | 8.7 | 0.00 | 0.00 | 0.00 | 60 | 1009.0 |
| 20260509162046 | 62 | 244 | 4.3 | 8.7 | 0.00 | 0.00 | 0.00 | 59 | 1008.9 |
| 20260509161558 | 62 | 166 | 0.9 | 7.8 | 0.00 | 0.00 | 0.00 | 59 | 1009.0 |
| 20260509161045 | 62 | 248 | 4.3 | 7.8 | 0.00 | 0.00 | 0.00 | 57 | 1009.0 |
| 20260509160544 | 62 | 207 | 1.7 | 6.1 | 0.00 | 0.00 | 0.00 | 61 | 1009.0 |
| 20260509160044 | 62 | 235 | 1.7 | 5.2 | 0.00 | 0.00 | 0.00 | 59 | 1008.9 |
| 20260509155547 | 61 | 155 | 1.7 | 3.5 | 0.00 | 0.00 | 0.00 | 59 | 1008.9 |
| 20260509155041 | 61 | 192 | 0.9 | 2.6 | 0.00 | 0.00 | 0.00 | 62 | 1008.9 |
| 20260509154541 | 61 | 151 | 0.9 | 3.5 | 0.00 | 0.00 | 0.00 | 58 | 1009.0 |
| 20260509154039 | 60 | 286 | 1.7 | 4.3 | 0.00 | 0.00 | 0.00 | 59 | 1009.0 |
| 20260509153543 | 60 | 278 | 1.7 | 4.3 | 0.00 | 0.00 | 0.00 | 59 | 1009.0 |
| 20260509153040 | 60 | 265 | 1.7 | 7.0 | 0.00 | 0.00 | 0.00 | 59 | 1009.0 |
| 20260509152539 | 60 | 262 | 1.7 | 6.1 | 0.00 | 0.00 | 0.00 | 59 | 1009.1 |
| 20260509152039 | 60 | 156 | 0.9 | 4.3 | 0.00 | 0.00 | 0.00 | 60 | 1009.2 |
| 20260509151540 | 60 | 173 | 2.6 | 4.3 | 0.00 | 0.00 | 0.00 | 58 | 1009.2 |
| 20260509151037 | 60 | 188 | 1.7 | 5.2 | 0.00 | 0.00 | 0.00 | 59 | 1009.3 |
| 20260509150539 | 60 | 228 | 0.9 | 2.6 | 0.00 | 0.00 | 0.00 | 59 | 1009.2 |
| 20260509150137 | 60 | 232 | 0.9 | 2.6 | 0.00 | 0.00 | 0.00 | 59 | 1009.4 |
| 20260509145537 | 60 | 257 | 1.7 | 2.6 | 0.00 | 0.00 | 0.00 | 61 | 1009.5 |
| 20260509145040 | 60 | 275 | 0.0 | 3.5 | 0.00 | 0.00 | 0.00 | 60 | 1009.5 |
| 20260509144536 | 60 | 202 | 1.7 | 3.5 | 0.00 | 0.00 | 0.00 | 60 | 1009.7 |
| 20260509144035 | 60 | 259 | 0.0 | 3.5 | 0.00 | 0.00 | 0.00 | 60 | 1009.6 |
| 20260509143535 | 60 | 45 | 0.9 | 3.5 | 0.00 | 0.00 | 0.00 | 61 | 1009.5 |
| 20260509143039 | 60 | 42 | 0.0 | 3.5 | 0.00 | 0.00 | 0.00 | 65 | 1009.3 |
| 20260509142532 | 60 | 33 | 0.9 | 3.5 | 0.00 | 0.00 | 0.00 | 65 | 1009.3 |
| 20260509142032 | 59 | 23 | 0.9 | 3.5 | 0.00 | 0.00 | 0.00 | 66 | 1009.1 |
| 20260509141541 | 59 | 259 | 1.7 | 4.3 | 0.00 | 0.00 | 0.00 | 66 | 1009.1 |
| 20260509141029 | 59 | 351 | 1.7 | 4.3 | 0.00 | 0.00 | 0.00 | 65 | 1009.2 |
| 20260509140528 | 58 | 26 | 2.6 | 4.3 | 0.00 | 0.00 | 0.00 | 69 | 1009.1 |
| 20260509140027 | 58 | 31 | 1.7 | 5.2 | 0.00 | 0.00 | 0.00 | 69 | 1009.1 |
| 20260509135529 | 58 | 34 | 3.5 | 5.2 | 0.00 | 0.00 | 0.00 | 68 | 1009.1 |
| 20260509135024 | 58 | 24 | 1.7 | 5.2 | 0.00 | 0.00 | 0.00 | 71 | 1009.2 |
| 20260509134530 | 58 | 351 | 1.7 | 5.2 | 0.00 | 0.00 | 0.00 | 70 | 1009.2 |
| 20260509134026 | 57 | 31 | 2.6 | 7.0 | 0.00 | 0.00 | 0.00 | 69 | 1009.0 |
| 20260509133520 | 57 | 41 | 3.5 | 7.0 | 0.00 | 0.00 | 0.00 | 69 | 1009.2 |
| 20260509133020 | 57 | 41 | 1.7 | 3.5 | 0.00 | 0.00 | 0.00 | 71 | 1009.2 |
| 20260509132520 | 57 | 5 | 1.7 | 3.5 | 0.00 | 0.00 | 0.00 | 70 | 1009.2 |
| 20260509132018 | 57 | 34 | 1.7 | 4.3 | 0.00 | 0.00 | 0.00 | 72 | 1009.3 |
| 20260509131522 | 56 | 20 | 0.9 | 3.5 | 0.00 | 0.00 | 0.00 | 74 | 1009.4 |
| 20260509131014 | 56 | 22 | 1.7 | 3.5 | 0.00 | 0.00 | 0.00 | 72 | 1009.5 |
| 20260509130514 | 56 | 44 | 1.7 | 4.3 | 0.00 | 0.00 | 0.00 | 72 | 1009.6 |
| 20260509130017 | 56 | 41 | 0.9 | 2.6 | 0.00 | 0.00 | 0.00 | 73 | 1009.6 |
| 20260509125517 | 55 | 5 | 0.9 | 2.6 | 0.00 | 0.00 | 0.00 | 74 | 1009.6 |
| 20260509125011 | 55 | 38 | 0.0 | 2.6 | 0.00 | 0.00 | 0.00 | 72 | 1009.6 |
| 20260509124515 | 55 | 37 | 0.9 | 2.6 | 0.00 | 0.00 | 0.00 | 73 | 1009.5 |
| 20260509124010 | 55 | 24 | 1.7 | 2.6 | 0.00 | 0.00 | 0.00 | 71 | 1009.5 |
| 20260509123509 | 55 | 46 | 1.7 | 2.6 | 0.00 | 0.00 | 0.00 | 71 | 1009.5 |
| 20260509123013 | 55 | 26 | 0.9 | 2.6 | 0.00 | 0.00 | 0.00 | 71 | 1009.6 |
| 20260509122507 | 54 | 355 | 0.9 | 1.7 | 0.00 | 0.00 | 0.00 | 71 | 1009.4 |
| 20260509122006 | 54 | 355 | 0.0 | 1.7 | 0.00 | 0.00 | 0.00 | 73 | 1009.6 |
| 20260509121506 | 54 | 355 | 0.0 | 1.7 | 0.00 | 0.00 | 0.00 | 74 | 1009.6 |
| 20260509121006 | 53 | 355 | 0.0 | 1.7 | 0.00 | 0.00 | 0.00 | 74 | 1009.6 |
| 20260509120506 | 53 | 331 | 0.0 | 1.7 | 0.00 | 0.00 | 0.00 | 72 | 1009.6 |
| 20260509120012 | 53 | 320 | 0.0 | 1.7 | 0.00 | 0.00 | 0.00 | 75 | 1009.7 |
| 20260509115505 | 52 | 320 | 0.0 | 0.0 | 0.00 | 0.00 | 0.00 | 76 | 1009.6 |
| 20260509115006 | 52 | 303 | 0.0 | 0.0 | 0.00 | 0.00 | 0.00 | 78 | 1009.7 |
| 20260509114505 | 52 | 29 | 0.0 | 0.0 | 0.00 | 0.00 | 0.00 | 83 | 1009.7 |
| 20260509114008 | 51 | 29 | 0.0 | 0.0 | 0.00 | 0.00 | 0.00 | 80 | 1009.6 |
| 20260509113505 | 51 | 29 | 0.0 | 0.0 | 0.00 | 0.00 | 0.00 | 81 | 1009.7 |
| 20260509113004 | 51 | 29 | 0.0 | 0.0 | 0.00 | 0.00 | 0.00 | 79 | 1009.6 |
| 20260509112504 | 51 | 29 | 0.0 | 0.0 | 0.00 | 0.00 | 0.00 | 81 | 1009.6 |
| 20260509112008 | 51 | 29 | 0.0 | 0.0 | 0.00 | 0.00 | 0.00 | 81 | 1009.7 |
| 20260509111503 | 51 | 29 | 0.0 | 0.0 | 0.00 | 0.00 | 0.00 | 79 | 1009.7 |
| 20260509111003 | 51 | 29 | 0.0 | 0.0 | 0.00 | 0.00 | 0.00 | 80 | 1009.8 |
| 20260509110504 | 51 | 29 | 0.0 | 0.0 | 0.00 | 0.00 | 0.00 | 80 | 1009.8 |
| 20260509110003 | 51 | 29 | 0.0 | 0.0 | 0.00 | 0.00 | 0.00 | 79 | 1009.7 |
| 20260509105506 | 51 | 29 | 0.0 | 0.0 | 0.00 | 0.00 | 0.00 | 77 | 1009.7 |
| 20260509105004 | 51 | 29 | 0.0 | 0.0 | 0.00 | 0.00 | 0.00 | 77 | 1009.7 |
| 20260509104503 | 51 | 29 | 0.0 | 0.0 | 0.00 | 0.00 | 0.00 | 75 | 1009.6 |
| 20260509104002 | 51 | 29 | 0.0 | 0.0 | 0.00 | 0.00 | 0.00 | 76 | 1009.7 |
| 20260509103503 | 51 | 29 | 0.0 | 0.0 | 0.00 | 0.00 | 0.00 | 75 | 1009.7 |
| 20260509103002 | 51 | 29 | 0.0 | 0.0 | 0.00 | 0.00 | 0.00 | 75 | 1009.7 |
| 20260509102502 | 51 | 29 | 0.0 | 0.0 | 0.00 | 0.00 | 0.00 | 74 | 1009.7 |
| 20260509102001 | 51 | 29 | 0.0 | 0.0 | 0.00 | 0.00 | 0.00 | 74 | 1009.6 |
| 20260509101601 | 51 | 29 | 0.0 | 0.0 | 0.00 | 0.00 | 0.00 | 74 | 1009.6 |
| 20260509101059 | 51 | 29 | 0.0 | 0.0 | 0.00 | 0.00 | 0.00 | 73 | 1009.6 |
| 20260509100559 | 52 | 29 | 0.0 | 0.0 | 0.00 | 0.00 | 0.00 | 74 | 1009.5 |
| 20260509100100 | 52 | 29 | 0.0 | 0.0 | 0.00 | 0.00 | 0.00 | 72 | 1009.6 |
| 20260509095558 | 52 | 29 | 0.0 | 0.0 | 0.00 | 0.00 | 0.00 | 72 | 1009.6 |